When you browse on this site, cookies collect data to enhance your experience and personalize the content and advertising you see.
Visit our Privacy Policy to learn more. By continuing to use the site, you agree to this use of cookies and data.
  • în România
  • Lista ţărilor
  • Pe 7 zile
  • Temperatura apei
  • Hartă satelitară
  • Meteo pe hartă
  • Widget-uri
  • user-avatar
    Intrare

    Meteo pe oră la Lievin

    Astăzi, 23 Aprilie, Marţi

    Timp Temperatura Precipitaţii Vânt Presiune Umiditate
    00:00 +14°C° 0 mm 3 m/s 743 mmHg 67%
    01:00 +13°C° 0 mm 3 m/s 742 mmHg 69%
    02:00 +14°C° 0 mm 2 m/s 742 mmHg 71%
    03:00 +13°C° 0 mm 2 m/s 742 mmHg 74%
    04:00 +13°C° 0 mm 2 m/s 742 mmHg 75%
    05:00 +13°C° 0 mm 2 m/s 742 mmHg 75%
    06:00 +12°C° 0 mm 3 m/s 741 mmHg 76%
    07:00 +14°C° 0 mm 3 m/s 741 mmHg 71%
    08:00 +16°C° 0 mm 3 m/s 741 mmHg 66%
    09:00 +18°C° 0 mm 3 m/s 741 mmHg 61%
    10:00 +19°C° 0 mm 3 m/s 741 mmHg 59%
    11:00 +20°C° 0 mm 3 m/s 741 mmHg 56%
    12:00 +21°C° 0 mm 3 m/s 740 mmHg 54%
    13:00 +21°C° 0 mm 3 m/s 740 mmHg 54%
    14:00 +22°C° 0 mm 3 m/s 740 mmHg 54%
    15:00 +22°C° 0 mm 3 m/s 739 mmHg 53%
    16:00 +21°C° 0 mm 2 m/s 739 mmHg 58%
    17:00 +20°C° 0 mm 2 m/s 739 mmHg 63%
    18:00 +20°C° 0 mm 2 m/s 739 mmHg 67%
    19:00 +19°C° 0 mm 2 m/s 739 mmHg 70%
    20:00 +19°C° 0 mm 1 m/s 739 mmHg 73%
    21:00 +18°C° 0 mm 1 m/s 739 mmHg 77%
    22:00 +16°C° 0 mm 2 m/s 739 mmHg 80%
    23:00 +16°C° 0 mm 2 m/s 739 mmHg 83%

    Mâine, 24 Aprilie, Miercuri

    Timp Temperatura Precipitaţii Vânt Presiune Umiditate
    00:00 +14°C° 0 mm 3 m/s 739 mmHg 87%
    01:00 +14°C° 0 mm 3 m/s 739 mmHg 87%
    02:00 +14°C° 0 mm 3 m/s 739 mmHg 87%
    03:00 +14°C° 0 mm 4 m/s 738 mmHg 87%
    04:00 +13°C° 0 mm 4 m/s 739 mmHg 86%
    05:00 +13°C° 0 mm 5 m/s 739 mmHg 85%
    06:00 +13°C° 0 mm 6 m/s 739 mmHg 84%
    07:00 +14°C° 0 mm 6 m/s 739 mmHg 80%
    08:00 +15°C° 0 mm 7 m/s 740 mmHg 76%
    09:00 +17°C° 0 mm 8 m/s 740 mmHg 71%
    10:00 +17°C° 0 mm 7 m/s 740 mmHg 68%
    11:00 +17°C° 0 mm 7 m/s 741 mmHg 65%
    12:00 +17°C° 0 mm 7 m/s 741 mmHg 62%
    13:00 +17°C° 0.2 mm 7 m/s 741 mmHg 62%
    14:00 +17°C° 0.2 mm 8 m/s 742 mmHg 62%
    15:00 +17°C° 0.2 mm 8 m/s 742 mmHg 62%
    16:00 +16°C° 0.2 mm 7 m/s 742 mmHg 66%
    17:00 +14°C° 0.2 mm 5 m/s 742 mmHg 70%
    18:00 +13°C° 0.2 mm 4 m/s 742 mmHg 74%
    19:00 +13°C° 0.4 mm 4 m/s 743 mmHg 76%
    20:00 +12°C° 0.4 mm 4 m/s 744 mmHg 79%
    21:00 +10°C° 0.4 mm 5 m/s 744 mmHg 82%
    22:00 +9°C° 0 mm 5 m/s 744 mmHg 83%
    23:00 +9°C° 0 mm 5 m/s 744 mmHg 85%

    Poimâine, 25 Aprilie, Joi

    Timp Temperatura Precipitaţii Vânt Presiune Umiditate
    00:00 +8°C° 0 mm 5 m/s 744 mmHg 87%
    01:00 +9°C° 0 mm 5 m/s 743 mmHg 83%
    02:00 +9°C° 0 mm 6 m/s 743 mmHg 79%
    03:00 +10°C° 0 mm 7 m/s 743 mmHg 75%
    04:00 +9°C° 0.4 mm 7 m/s 743 mmHg 78%
    05:00 +9°C° 0.4 mm 7 m/s 743 mmHg 80%
    06:00 +9°C° 0.4 mm 8 m/s 743 mmHg 83%
    07:00 +10°C° 0.2 mm 9 m/s 743 mmHg 80%
    08:00 +11°C° 0.2 mm 10 m/s 744 mmHg 76%
    09:00 +12°C° 0.2 mm 12 m/s 744 mmHg 73%
    10:00 +13°C° 0.2 mm 11 m/s 744 mmHg 69%
    11:00 +13°C° 0.2 mm 9 m/s 745 mmHg 64%
    12:00 +15°C° 0.2 mm 8 m/s 746 mmHg 60%
    13:00 +14°C° 0.2 mm 7 m/s 746 mmHg 62%
    14:00 +14°C° 0.2 mm 7 m/s 746 mmHg 64%
    15:00 +13°C° 0.2 mm 6 m/s 746 mmHg 66%
    16:00 +13°C° 0.1 mm 5 m/s 747 mmHg 69%
    17:00 +12°C° 0.1 mm 5 m/s 747 mmHg 71%
    18:00 +11°C° 0.1 mm 4 m/s 748 mmHg 74%
    19:00 +10°C° 0 mm 5 m/s 748 mmHg 75%
    20:00 +9°C° 0 mm 5 m/s 749 mmHg 76%
    21:00 +9°C° 0 mm 5 m/s 749 mmHg 77%
    22:00 +8°C° 0 mm 5 m/s 749 mmHg 78%
    23:00 +8°C° 0 mm 6 m/s 749 mmHg 79%

    26 Aprilie, Vineri

    Timp Temperatura Precipitaţii Vânt Presiune Umiditate
    00:00 +8°C° 0 mm 6 m/s 749 mmHg 80%
    01:00 +7°C° 0 mm 6 m/s 749 mmHg 79%
    02:00 +7°C° 0 mm 6 m/s 749 mmHg 79%
    03:00 +7°C° 0 mm 6 m/s 749 mmHg 78%
    04:00 +6°C° 0 mm 7 m/s 749 mmHg 78%
    05:00 +8°C° 0 mm 7 m/s 749 mmHg 77%
    06:00 +7°C° 0 mm 8 m/s 749 mmHg 77%
    07:00 +9°C° 0 mm 8 m/s 749 mmHg 74%
    08:00 +10°C° 0 mm 9 m/s 749 mmHg 72%
    09:00 +12°C° 0 mm 9 m/s 749 mmHg 70%
    10:00 +11°C° 0.9 mm 8 m/s 749 mmHg 73%
    11:00 +11°C° 0.9 mm 7 m/s 749 mmHg 76%
    12:00 +11°C° 0.9 mm 6 m/s 749 mmHg 79%
    13:00 +13°C° 0.3 mm 6 m/s 750 mmHg 73%
    14:00 +14°C° 0.3 mm 6 m/s 750 mmHg 67%
    15:00 +15°C° 0.3 mm 6 m/s 750 mmHg 61%
    16:00 +14°C° 0.1 mm 5 m/s 750 mmHg 65%
    17:00 +13°C° 0.1 mm 4 m/s 751 mmHg 69%
    18:00 +12°C° 0.1 mm 4 m/s 751 mmHg 73%
    19:00 +11°C° 0 mm 4 m/s 752 mmHg 76%
    20:00 +10°C° 0 mm 4 m/s 752 mmHg 79%
    21:00 +8°C° 0 mm 4 m/s 753 mmHg 82%
    22:00 +8°C° 0 mm 5 m/s 753 mmHg 82%
    23:00 +8°C° 0 mm 6 m/s 754 mmHg 82%

    27 Aprilie, Sâmbătă

    Timp Temperatura Precipitaţii Vânt Presiune Umiditate
    00:00 +8°C° 0 mm 6 m/s 754 mmHg 82%
    01:00 +8°C° 0 mm 6 m/s 755 mmHg 81%
    02:00 +8°C° 0 mm 6 m/s 756 mmHg 80%
    03:00 +8°C° 0 mm 6 m/s 756 mmHg 80%
    04:00 +8°C° 0 mm 6 m/s 757 mmHg 80%
    05:00 +7°C° 0 mm 6 m/s 757 mmHg 80%
    06:00 +7°C° 0 mm 5 m/s 758 mmHg 80%
    07:00 +8°C° 0 mm 5 m/s 759 mmHg 74%
    08:00 +9°C° 0 mm 5 m/s 759 mmHg 68%
    09:00 +10°C° 0 mm 6 m/s 760 mmHg 62%
    10:00 +10°C° 0.1 mm 5 m/s 760 mmHg 66%
    11:00 +11°C° 0.1 mm 4 m/s 760 mmHg 69%
    12:00 +11°C° 0.1 mm 4 m/s 760 mmHg 72%
    13:00 +10°C° 1 mm 3 m/s 760 mmHg 78%
    14:00 +10°C° 1 mm 2 m/s 760 mmHg 83%
    15:00 +9°C° 1 mm 0 m/s 760 mmHg 89%
    16:00 +11°C° 0.1 mm 1 m/s 760 mmHg 89%
    17:00 +11°C° 0.1 mm 1 m/s 760 mmHg 89%
    18:00 +12°C° 0.1 mm 1 m/s 760 mmHg 89%
    19:00 +11°C° 0 mm 1 m/s 761 mmHg 91%
    20:00 +10°C° 0 mm 1 m/s 761 mmHg 93%
    21:00 +9°C° 0 mm 1 m/s 762 mmHg 94%
    22:00 +9°C° 0 mm 1 m/s 762 mmHg 95%
    23:00 +9°C° 0 mm 1 m/s 762 mmHg 95%

    28 Aprilie, Duminică

    Timp Temperatura Precipitaţii Vânt Presiune Umiditate
    00:00 +9°C° 0 mm 1 m/s 762 mmHg 96%
    01:00 +7°C° 0 mm 2 m/s 762 mmHg 95%
    02:00 +7°C° 0 mm 2 m/s 762 mmHg 94%
    03:00 +6°C° 0 mm 2 m/s 762 mmHg 94%
    04:00 +7°C° 0 mm 2 m/s 762 mmHg 94%
    05:00 +8°C° 0 mm 2 m/s 762 mmHg 93%
    06:00 +8°C° 0 mm 3 m/s 762 mmHg 93%
    07:00 +10°C° 0 mm 3 m/s 762 mmHg 86%
    08:00 +11°C° 0 mm 3 m/s 762 mmHg 79%
    09:00 +13°C° 0 mm 4 m/s 763 mmHg 72%
    10:00 +14°C° 0 mm 4 m/s 762 mmHg 68%
    11:00 +15°C° 0 mm 4 m/s 762 mmHg 65%
    12:00 +17°C° 0 mm 4 m/s 762 mmHg 61%
    13:00 +17°C° 0 mm 4 m/s 761 mmHg 61%
    14:00 +17°C° 0 mm 4 m/s 761 mmHg 61%
    15:00 +16°C° 0 mm 5 m/s 761 mmHg 61%
    16:00 +15°C° 0 mm 4 m/s 760 mmHg 64%
    17:00 +14°C° 0 mm 4 m/s 760 mmHg 68%
    18:00 +12°C° 0 mm 3 m/s 760 mmHg 71%
    19:00 +11°C° 0 mm 3 m/s 760 mmHg 73%
    20:00 +10°C° 0 mm 3 m/s 760 mmHg 74%
    21:00 +8°C° 0 mm 3 m/s 759 mmHg 76%
    22:00 +8°C° 0 mm 3 m/s 759 mmHg 75%
    23:00 +8°C° 0 mm 3 m/s 759 mmHg 75%
    Arată mai mult